Flag Weather past 2 weeks in Minden, North Rhine-Westphalia, Germany

Now
50 °F

Drizzle. Low clouds.


Feels Like: 46 °F
Forecast: 37 / 46 °F
Wind: 10 mph from West

Location: Bueckeburg

Current Time: Nov 24, 2014 at 6:29:43 AM

Latest Report: Nov 24, 2014 at 5:20 AM


Visibility: 4 mi

Pressure: 30.07 "Hg

Humidity: 94%

Dew point: 48 °F

Location of MindenLocation

Historic Weather in Minden — Graph

°F

Minden temperature yesterday

Maximum temperature yesterday: 57 °F (at 1:20 PM)
Minimum temperature yesterday: 48 °F (at 12:20 AM)
Average temperature yesterday: 52 °F

Past Weeks' High & Low Weather Summary

 TemperatureHumidityPressure
High57 °F (Nov 11, 1:20 PM)100% (Nov 12, 5:20 PM)30.36 "Hg (Nov 12, 5:20 PM)
Low36 °F (Nov 21, 7:20 AM)59% (Nov 23, 2:20 PM)29.50 "Hg (Nov 16, 11:20 AM)
Average48 °F85%29.90 "Hg
* Reported Nov 9 5:20 AM — Nov 24 5:20 AM, Minden, Weather by CustomWeather, © 2014

Note: Actual official high and low records may vary slightly from our data, if they occured in-between our weather recording intervals... More about our weather records

Advertising

Minden weather history for previous 24 hours

 ConditionsComfort  
Time TempWeatherWind HumidityBarometerVisibility
5:20 AM
Nov 24
50 °FDrizzle. Low clouds.10 mph94%30.07 "Hg4 mi
5:01 AM50 °FDrizzle. Fog.17 mph94%30.04 "Hg3 mi
4:20 AM52 °FLight rain. Overcast.10 mph88%30.01 "Hg4 mi
3:20 AM52 °FLight rain. Overcast.9 mph77%29.98 "HgN/A
2:20 AM52 °FLight rain. Partly cloudy.13 mph72%29.98 "HgN/A
1:20 AM52 °FPassing clouds.10 mph72%29.98 "HgN/A
12:20 AM52 °FPassing clouds.14 mph72%29.98 "HgN/A
11:20 PM
Nov 23
52 °FPassing clouds.17 mph72%29.95 "HgN/A
10:20 PM54 °FPassing clouds.14 mph67%29.95 "HgN/A
9:20 PM54 °FPassing clouds.15 mph67%29.98 "HgN/A
8:20 PM54 °FPassing clouds.8 mph67%29.98 "HgN/A
7:20 PM54 °FPassing clouds.10 mph67%29.98 "HgN/A
6:20 PM54 °FPassing clouds.10 mph67%30.01 "HgN/A
5:20 PM55 °FCool.14 mph63%30.01 "HgN/A
4:20 PM55 °FCool.16 mph63%30.01 "HgN/A
3:20 PM55 °FCool.14 mph63%30.04 "HgN/A
2:20 PM57 °FRefreshingly cool.12 mph59%30.07 "HgN/A
1:20 PM57 °FCool.8 mph63%30.07 "HgN/A
12:20 PM54 °FCool.13 mph67%30.09 "HgN/A
11:20 AM54 °FCool.7 mph72%30.09 "HgN/A
10:20 AM52 °FCool.9 mph77%30.09 "HgN/A
9:20 AM50 °FCool.12 mph82%30.09 "HgN/A
8:20 AM48 °FCool.13 mph87%30.09 "HgN/A
7:20 AM48 °FCool.10 mph87%30.09 "HgN/A
6:20 AM48 °FCool.9 mph87%30.09 "HgN/A
Weather by CustomWeather, © 2014

See weather overviewHow to use our weather pages